User: anonymous   Login
Location: Rottenacker
(48.2350°N, 9.6886°E)
Time: 11:46:47
(UTC+02:00)
Language:

Tiangong 2 - Orbit

View from above orbital plane
View from above orbital plane
View from above satellite
View from above satellite

Ground track
Ground track

The orbit data is extracted from the following two-line orbital elements,

1 41765U 16057A   18295.12437216  .00003285  00000-0  44464-4 0  9997
2 41765  42.7839 305.4622 0006372  51.1025 359.2396 15.59778669119845
Epoch (UTC): 22 October 2018 02:59:05
Eccentricity: 0.0006372
inclination: 42.7839°
perigee height: 384 km
apogee height: 392 km
right ascension of ascending node: 305.4622°
argument of perigee: 51.1025°
revolutions per day: 15.59778669
mean anomaly at epoch: 359.2396°
orbit number at epoch: 11984

The dashed part of the orbit path shows where the satellite is in the earth's shadow,  

DLR